SPACEBEE-7

Last updated on Sat Nov 01 2025 00:03:47 GMT+0000 (Coordinated Universal Time)

1 43816U 18099BL 25304.66153861 .00081309 00000+0 14589-2 0 9998 2 43816 97.4794 18.5337 0004005 308.7894 51.2999 15.49617947378993
UTC large
Height (km)
Speed (km/s)
/
Latitude / Longitude
Inclination (degrees)
Orbital Period (minutes)
Azimuth
Elevation
Range (km)
Doppler Factor

Next 0 passes for location: London (51.5072 / 0.1276)

Sorry there are no passes over London.